Concord, NH

3:26 PM EDT on October 17, 2017 (GMT -0400)
Concord Municipal

Weather History for KCON - July, 2014

Change the Weather History Date:

Thursday, July 3, 2014

  Actual Average Record
Temperature  
Mean Temperature 75 °F 69 °F  
Max Temperature 84 °F 81 °F 102 °F (1966)
Min Temperature 66 °F 57 °F 41 °F (1957)
Degree Days  
Heating Degree Days 0 1  
Month to date heating degree days 0 3  
Since 1 June heating degree days 56 88  
Since 1 July heating degree days 0 3  
Cooling Degree Days 10 5  
Month to date cooling degree days 38 15  
Year to date cooling degree days 113 117  
Since 1 June cooling degree days 111 99  
Growing Degree Days 25 (Base 50)    
Moisture  
Dew Point 68 °F    
Average Humidity 83    
Maximum Humidity 100    
Minimum Humidity 65    
Precipitation  
Precipitation 1.22 in 0.11 in 2.17 in (1872)
Month to date precipitation 2.71 0.33  
Year to date precipitation 24.28 19.68  
Snow  
Snow 0.00 in 0.00 in 0.00 in (2002)
Month to date snowfall 0.0 0.0  
Since 1 June snowfall 0.0 0.0  
Since 1 July snowfall 0.0 0.0  
Snow Depth 0.00 in    
Sea Level Pressure  
Sea Level Pressure 29.95 in    
Wind  
Wind Speed 3 mph (SSE)    
Max Wind Speed 17 mph    
Max Gust Speed 24 mph    
Visibility 5 miles    
Events Fog , Rain    
T = Trace of Precipitation, MM = Missing Value Source: NWS Daily Summary

Daily Weather History Graph

Daily Weather History Graph

Search for Another Location

Airport or City:

Trip Planner

Search our weather history database for the weather conditions in past years. The results will help you decide how hot, cold, wet, or windy it might be!

Date:

Astronomy

Jul. 03, 2014 Rise Set
Actual Time 5:11 AM EDT 8:29 PM EDT
Civil Twilight 4:35 AM EDT 9:04 PM EDT
Nautical Twilight 3:50 AM EDT 9:49 PM EDT
Astronomical Twilight 2:53 AM EDT 10:46 PM EDT
Moon 11:17 AM EDT (7/3) 11:38 PM EDT (7/3)
Length of Visible Light 16h 28m
Length of Day
15h 18m
Waxing Crescent, 33% of the Moon is Illuminated
Jul 3
Waxing Crescent
Jul 5
First Quarter
Jul 12
Full
Jul 18
Last Quarter
Jul 26
New

Hourly Weather History & Observations

Time (EDT) Temp. Heat Index Dew Point Humidity Pressure Visibility Wind Dir Wind Speed Gust Speed Precip Events Conditions
12:51 AM 68.0 °F - 66.9 °F 96% 29.90 in 9.0 mi Calm Calm - N/A   Clear
1:51 AM 68.0 °F - 66.9 °F 96% 29.91 in 10.0 mi South 3.5 mph - N/A   Clear
2:51 AM 66.9 °F - 66.9 °F 100% 29.91 in 9.0 mi Calm Calm - N/A   Clear
3:51 AM 66.9 °F - 66.9 °F 100% 29.91 in 8.0 mi Calm Calm - N/A   Clear
4:47 AM 66.2 °F - 66.2 °F 100% 29.93 in 1.8 mi Calm Calm - N/A   Clear
4:51 AM 66.0 °F - 66.0 °F 100% 29.93 in 0.8 mi Calm Calm - N/A   Clear
5:02 AM 66.9 °F - 66.0 °F 97% 29.93 in 1.0 mi Calm Calm - N/A   Clear
5:09 AM 66.2 °F - 66.2 °F 100% 29.94 in 0.8 mi Calm Calm - N/A   Clear
5:13 AM 66.0 °F - 66.0 °F 100% 29.94 in 2.0 mi Calm Calm - N/A   Partly Cloudy
5:21 AM 66.0 °F - 66.0 °F 100% 29.94 in 1.2 mi Calm Calm - N/A   Scattered Clouds
5:24 AM 66.0 °F - 66.0 °F 100% 29.94 in 0.8 mi Calm Calm - N/A   Mist
5:35 AM 66.0 °F - 66.0 °F 100% 29.94 in 0.2 mi Calm Calm - N/A Fog Fog
5:44 AM 66.0 °F - 66.0 °F 100% 29.95 in 1.0 mi SSE 3.5 mph - N/A   Mostly Cloudy
5:51 AM 66.9 °F - 66.9 °F 100% 29.94 in 1.0 mi Calm Calm - N/A   Mostly Cloudy
5:59 AM 66.2 °F - 66.2 °F 100% 29.95 in 0.5 mi Calm Calm - N/A Fog Fog
6:07 AM 66.9 °F - 66.9 °F 100% 29.95 in 0.2 mi Calm Calm - N/A Fog Fog
6:22 AM 68.0 °F - 68.0 °F 100% 29.96 in 0.5 mi Calm Calm - N/A Fog Fog
6:36 AM 68.0 °F - 68.0 °F 100% 29.96 in 1.5 mi SSW 3.5 mph - N/A   Mostly Cloudy
6:44 AM 68.0 °F - 68.0 °F 100% 29.96 in 1.8 mi Calm Calm - N/A   Scattered Clouds
6:51 AM 69.1 °F - 69.1 °F 100% 29.96 in 2.5 mi Calm Calm - N/A   Scattered Clouds
6:59 AM 69.1 °F - 68.0 °F 96% 29.96 in 4.0 mi Calm Calm - N/A   Scattered Clouds
7:06 AM 69.1 °F - 68.0 °F 96% 29.96 in 4.0 mi Calm Calm - N/A   Mostly Cloudy
7:31 AM 71.1 °F - 68.0 °F 90% 29.96 in 6.0 mi Calm Calm - N/A   Mostly Cloudy
7:40 AM 71.1 °F - 69.1 °F 93% 29.96 in 8.0 mi NW 3.5 mph - N/A   Scattered Clouds
7:49 AM 71.6 °F - 69.8 °F 94% 29.96 in 6.0 mi NW 3.5 mph - N/A   Mostly Cloudy
7:51 AM 71.1 °F - 68.0 °F 90% 29.96 in 5.0 mi NW 3.5 mph - N/A   Mostly Cloudy
8:51 AM 71.1 °F - 68.0 °F 90% 29.96 in 6.0 mi NNW 3.5 mph - N/A   Overcast
9:51 AM 73.9 °F - 69.1 °F 85% 29.96 in 6.0 mi Calm Calm - N/A   Haze
10:51 AM 78.1 °F - 68.0 °F 71% 29.96 in 8.0 mi Calm Calm - N/A   Clear
11:51 AM 80.1 °F 83.2 °F 70.0 °F 71% 29.96 in 10.0 mi Calm Calm - N/A   Clear
12:51 PM 82.0 °F 85.9 °F 70.0 °F 67% 29.96 in 10.0 mi Calm Calm - N/A   Mostly Cloudy
1:51 PM 81.0 °F 85.2 °F 72.0 °F 74% 29.96 in 10.0 mi Variable 3.5 mph - 0.00 in   Overcast
2:51 PM 82.0 °F 86.3 °F 71.1 °F 69% 29.94 in 10.0 mi Variable 5.8 mph - N/A   Scattered Clouds
3:51 PM 78.1 °F - 70.0 °F 76% 29.93 in 10.0 mi SE 5.8 mph - N/A   Clear
4:51 PM 80.1 °F 83.8 °F 72.0 °F 76% 29.91 in 10.0 mi ESE 6.9 mph - 0.00 in Rain Light Rain
5:51 PM 82.0 °F 86.7 °F 72.0 °F 71% 29.88 in 10.0 mi SSE 6.9 mph - 0.00 in   Partly Cloudy
6:51 PM 78.1 °F - 72.0 °F 81% 29.91 in 10.0 mi SE 3.5 mph - N/A   Clear
7:51 PM 73.9 °F - 69.1 °F 85% 29.91 in 10.0 mi East 3.5 mph - N/A   Clear
8:51 PM 73.0 °F - 70.0 °F 90% 29.92 in 10.0 mi South 4.6 mph - N/A   Mostly Cloudy
9:09 PM 69.1 °F - 64.9 °F 87% 29.97 in 1.8 mi NW 8.1 mph - 0.15 in Rain Heavy Rain
9:23 PM 68.0 °F - 64.9 °F 90% 29.98 in 1.0 mi SSE 4.6 mph - 0.41 in Rain Heavy Rain
9:40 PM 66.9 °F - 66.0 °F 97% 29.95 in 2.0 mi ESE 8.1 mph - 0.72 in Rain Light Rain
9:48 PM 66.2 °F - 66.2 °F 100% 30.01 in 7.0 mi South 12.7 mph 18.4 mph 0.73 in Rain Light Rain
9:51 PM 66.9 °F - 66.0 °F 97% 30.03 in 6.0 mi South 17.3 mph 24.2 mph 0.73 in Rain Light Rain
9:56 PM 66.9 °F - 66.0 °F 97% 30.02 in 1.8 mi South 8.1 mph 24.2 mph 0.06 in Rain Heavy Rain
10:04 PM 66.9 °F - 66.0 °F 97% 30.00 in 1.0 mi South 5.8 mph - 0.26 in Rain Heavy Rain
10:10 PM 66.9 °F - 66.0 °F 97% 30.00 in 2.0 mi SSE 5.8 mph - 0.29 in Rain Rain
10:18 PM 66.9 °F - 66.0 °F 97% 29.99 in 5.0 mi SE 4.6 mph - 0.30 in Rain Light Rain
10:51 PM 66.9 °F - 66.0 °F 97% 29.98 in 8.0 mi Calm Calm - 0.34 in Rain Light Rain
11:51 PM 66.0 °F - 66.0 °F 100% 29.97 in 6.0 mi NE 3.5 mph - 0.14 in Rain Rain